Location: *
(48.7358°N, 0.3111°E)
Time: 12:11:28
(UTC+00:00)

Cosmos 2219 Rocket - Pass Details

Date: 22 October 2019
Orbit: 828 x 846 km, 71.0° (Epoch: 16 November)

Event Time Altitude Azimuth Distance (km) Brightness Sun altitude
Exits shadow 02:21:37 24° 57° (ENE) 1,680 4.2 -39.9°
Drops below altitude 10° 02:24:01 10° 41° (NE) 2,444 5.3 -39.6°
Sets 02:26:36 0° 34° (NE) 3,384 6.1 -39.2°
